Camden, AR

7:57 PM CST on December 04, 2016 (GMT -0600)
Harrell

Weather History for KCDH - January, 2014

Change the Weather History Date:

Thursday, January 23, 2014

  Actual Average Record
Temperature  
Mean Temperature 32 °F -  
Max Temperature 37 °F 54 °F 83 °F (1943)
Min Temperature 26 °F 31 °F 7 °F (1930)
Degree Days  
Heating Degree Days 34    
Moisture  
Dew Point 8 °F    
Average Humidity 39    
Maximum Humidity 75    
Minimum Humidity 20    
Precipitation  
Precipitation 0.00 in - - ()
Sea Level Pressure  
Sea Level Pressure 30.54 in    
Wind  
Wind Speed - (North)    
Max Wind Speed -    
Max Gust Speed -    
Visibility 10 miles    
Events Rain    
Averages and records for this station are not official NWS values.
T = Trace of Precipitation, MM = Missing Value Source: NWS Daily Summary

Daily Weather History Graph

Daily Weather History Graph

Search for Another Location

Airport or City:

Trip Planner

Search our weather history database for the weather conditions in past years. The results will help you decide how hot, cold, wet, or windy it might be!

Date:

Astronomy

Jan. 23, 2014 Rise Set
Actual Time 7:12 AM CST 5:33 PM CST
Civil Twilight 6:46 AM CST 6:00 PM CST
Nautical Twilight 6:15 AM CST 6:30 PM CST
Astronomical Twilight 5:46 AM CST 7:00 PM CST
Moon No Moon Rise 11:10 AM CST (1/23)
Length of Visible Light 11h 14m
Length of Day
10h 20m
Waning Gibbous, 55% of the Moon is Illuminated
Jan 23
Waning Gibbous
Jan 23
Last Quarter
Jan 30
New
Feb 6
First Quarter
Feb 14
Full

Hourly Weather History & Observations

Time (CST) Temp. Dew Point Humidity Pressure Visibility Wind Dir Wind Speed Gust Speed Precip Events Conditions
12:15 AM 32.0 °F 23.0 °F 69% 30.23 in 10.0 mi North - - N/A   Clear
12:35 AM 32.0 °F 24.8 °F 75% 30.24 in 10.0 mi North - - N/A   Clear
12:55 AM 32.0 °F 23.0 °F 69% 30.25 in 10.0 mi North - - N/A   Clear
1:15 AM 33.8 °F 23.0 °F 65% 30.26 in 10.0 mi North - - N/A   Clear
1:35 AM 37.4 °F 21.2 °F 52% 30.27 in 10.0 mi North - - N/A   Clear
1:55 AM 37.4 °F 19.4 °F 48% 30.28 in 10.0 mi North - - N/A Rain Light Rain
2:15 AM 37.4 °F 17.6 °F 45% 30.29 in 10.0 mi North - - N/A   Clear
2:35 AM 37.4 °F 17.6 °F 45% 30.30 in 10.0 mi North - - N/A   Clear
2:55 AM 37.4 °F 17.6 °F 45% 30.31 in 10.0 mi North - - N/A   Clear
3:15 AM 35.6 °F 17.6 °F 48% 30.32 in 10.0 mi North - - N/A   Clear
3:35 AM 35.6 °F 17.6 °F 48% 30.33 in 10.0 mi North - - N/A   Clear
3:55 AM 33.8 °F 17.6 °F 52% 30.33 in 10.0 mi North - - N/A   Clear
4:15 AM 32.0 °F 17.6 °F 55% 30.35 in 10.0 mi North - - N/A   Clear
4:35 AM 32.0 °F 17.6 °F 55% 30.36 in 10.0 mi North - - N/A   Clear
4:55 AM 32.0 °F 17.6 °F 55% 30.35 in 10.0 mi North - - N/A   Clear
5:15 AM 32.0 °F 19.4 °F 60% 30.36 in 10.0 mi North - - N/A   Clear
5:35 AM 32.0 °F 17.6 °F 55% 30.37 in 10.0 mi North - - N/A   Clear
5:55 AM 32.0 °F 17.6 °F 55% 30.39 in 10.0 mi North - - N/A   Clear
6:15 AM 32.0 °F 17.6 °F 55% 30.41 in 10.0 mi North - - N/A   Clear
6:35 AM 32.0 °F 17.6 °F 55% 30.42 in 10.0 mi North - - N/A   Clear
6:55 AM 32.0 °F 19.4 °F 60% 30.42 in 10.0 mi North - - N/A   Clear
7:15 AM 32.0 °F 19.4 °F 60% 30.44 in 10.0 mi North - - N/A   Clear
7:35 AM 32.0 °F 19.4 °F 60% 30.46 in 10.0 mi North - - N/A   Clear
7:55 AM 32.0 °F 17.6 °F 55% 30.48 in 10.0 mi North - - N/A   Clear
8:15 AM 33.8 °F 17.6 °F 52% 30.48 in 10.0 mi North - - N/A   Clear
8:35 AM 35.6 °F 15.8 °F 44% 30.49 in 10.0 mi North - - N/A   Clear
8:55 AM 35.6 °F 15.8 °F 44% 30.51 in 10.0 mi North - - N/A   Clear
9:15 AM 35.6 °F 14.0 °F 41% 30.52 in 10.0 mi North - - N/A   Mostly Cloudy
9:35 AM 35.6 °F 14.0 °F 41% 30.53 in 10.0 mi North - - N/A   Mostly Cloudy
9:55 AM 35.6 °F 15.8 °F 44% 30.55 in 10.0 mi North - - N/A   Partly Cloudy
10:15 AM 35.6 °F 15.8 °F 44% 30.55 in 10.0 mi North - - N/A   Clear
10:35 AM 35.6 °F 14.0 °F 41% 30.56 in 10.0 mi North - - N/A   Clear
10:55 AM 37.4 °F 14.0 °F 38% 30.57 in 10.0 mi North - - N/A   Clear
11:15 AM 35.6 °F 14.0 °F 41% 30.58 in 10.0 mi North - - N/A   Scattered Clouds
11:35 AM 35.6 °F 14.0 °F 41% 30.58 in 10.0 mi North - - N/A   Scattered Clouds
11:55 AM 35.6 °F 14.0 °F 41% 30.58 in 10.0 mi North - - N/A   Partly Cloudy
12:15 PM 35.6 °F 14.0 °F 41% 30.59 in 10.0 mi North - - N/A   Partly Cloudy
12:35 PM 35.6 °F 12.2 °F 38% 30.59 in 10.0 mi North - - N/A   Mostly Cloudy
12:55 PM 33.8 °F 6.8 °F 32% 30.59 in 10.0 mi North - - N/A   Overcast
1:15 PM 33.8 °F 1.4 °F 25% 30.58 in 10.0 mi North - - N/A   Scattered Clouds
1:35 PM 33.8 °F 1.4 °F 25% 30.58 in 10.0 mi North - - N/A   Scattered Clouds
1:55 PM 35.6 °F 1.4 °F 24% 30.59 in 10.0 mi North - - N/A   Partly Cloudy
2:15 PM 33.8 °F -2.2 °F 22% 30.59 in 10.0 mi North - - N/A   Mostly Cloudy
2:35 PM 32.0 °F -2.2 °F 23% 30.60 in 10.0 mi North - - N/A   Overcast
2:55 PM 32.0 °F -4.0 °F 21% 30.61 in 10.0 mi North - - N/A   Mostly Cloudy
3:15 PM 32.0 °F -4.0 °F 21% 30.62 in 10.0 mi North - - N/A   Partly Cloudy
3:35 PM 32.0 °F -4.0 °F 21% 30.63 in 10.0 mi North - - N/A   Clear
3:55 PM 32.0 °F -5.8 °F 20% 30.63 in 10.0 mi North - - N/A   Scattered Clouds
4:15 PM 32.0 °F -5.8 °F 20% 30.64 in 10.0 mi North - - N/A   Mostly Cloudy
4:35 PM 32.0 °F -5.8 °F 20% 30.64 in 10.0 mi North - - N/A   Overcast
4:55 PM 30.2 °F -4.0 °F 23% 30.65 in 10.0 mi North - - N/A   Overcast
5:15 PM 30.2 °F -4.0 °F 23% 30.66 in 10.0 mi North - - N/A   Overcast
5:35 PM 30.2 °F -4.0 °F 23% 30.67 in 10.0 mi North - - N/A   Overcast
5:55 PM 28.4 °F -4.0 °F 25% 30.67 in 10.0 mi North - - N/A   Scattered Clouds
6:15 PM 28.4 °F -4.0 °F 25% 30.68 in 10.0 mi North - - N/A   Clear
6:35 PM 28.4 °F -2.2 °F 27% 30.70 in 10.0 mi North - - N/A   Clear
6:55 PM 28.4 °F -2.2 °F 27% 30.70 in 10.0 mi North - - N/A   Partly Cloudy
7:15 PM 28.4 °F -2.2 °F 27% 30.71 in 10.0 mi North - - N/A   Mostly Cloudy
7:35 PM 28.4 °F -2.2 °F 27% 30.72 in 10.0 mi North - - N/A   Scattered Clouds
7:55 PM 28.4 °F -2.2 °F 27% 30.73 in 10.0 mi North - - N/A   Scattered Clouds
8:15 PM 28.4 °F -2.2 °F 27% 30.74 in 10.0 mi North - - N/A   Mostly Cloudy
8:55 PM 28.4 °F -0.4 °F 29% 30.75 in 10.0 mi North - - N/A   Overcast
9:15 PM 26.6 °F -0.4 °F 31% 30.75 in 10.0 mi North - - N/A   Scattered Clouds
9:55 PM 26.6 °F -2.2 °F 29% 30.77 in 10.0 mi North - - N/A   Clear
10:15 PM 26.6 °F -4.0 °F 26% 30.77 in 10.0 mi North - - N/A   Clear
10:35 PM 26.6 °F -4.0 °F 26% 30.77 in 10.0 mi North - - N/A   Clear
10:55 PM 26.6 °F -4.0 °F 26% 30.79 in 10.0 mi North - - N/A   Clear
11:15 PM 26.6 °F -4.0 °F 26% 30.78 in 10.0 mi North - - N/A   Clear
11:35 PM 26.6 °F -4.0 °F 26% 30.78 in 10.0 mi North - - N/A   Clear
11:55 PM 26.6 °F -4.0 °F 26% 30.78 in 10.0 mi North - - N/A   Clear